When you browse on this site, cookies collect data to enhance your experience and personalize the content and advertising you see.
Visit our Privacy Policy to learn more. By continuing to use the site, you agree to this use of cookies and data.
  • In Hungary
  • List of Countries
  • For 7 days
  • Water Temperature
  • Satellite Maps
  • Weather Map
  • News
  • Weather Widgets
  • user-avatar
    Login

    Hourly Weather Bukowiec

    Today, 17 November, Saturday

    Time Temperature Precipitation Wind Pressure Humidity
    00:00 -1°C° 0 mm 3 mps 744 mmHg 87%
    01:00 -1°C° 0 mm 3 mps 745 mmHg 88%
    02:00 -1°C° 0 mm 3 mps 744 mmHg 88%
    03:00 -2°C° 0 mm 3 mps 744 mmHg 87%
    04:00 -2°C° 0 mm 3 mps 744 mmHg 87%
    05:00 -2°C° 0 mm 3 mps 744 mmHg 84%
    06:00 -2°C° 0 mm 3 mps 744 mmHg 81%
    07:00 -4°C° 0 mm 3 mps 744 mmHg 78%
    08:00 -1°C° 0 mm 3 mps 744 mmHg 71%
    09:00 0°C° 0 mm 3 mps 744 mmHg 63%
    10:00 0°C° 0 mm 4 mps 744 mmHg 56%
    11:00 +1°C° 0 mm 4 mps 744 mmHg 52%
    12:00 +1°C° 0 mm 4 mps 743 mmHg 48%
    13:00 +3°C° 0 mm 4 mps 743 mmHg 44%
    14:00 +1°C° 0 mm 4 mps 743 mmHg 46%
    15:00 +1°C° 0 mm 3 mps 743 mmHg 49%
    16:00 0°C° 0 mm 3 mps 743 mmHg 51%
    17:00 0°C° 0 mm 3 mps 742 mmHg 53%
    18:00 -1°C° 0 mm 3 mps 742 mmHg 55%
    19:00 -1°C° 0 mm 2 mps 742 mmHg 57%
    20:00 -2°C° 0 mm 2 mps 742 mmHg 58%
    21:00 -2°C° 0 mm 2 mps 742 mmHg 59%
    22:00 -2°C° 0 mm 2 mps 742 mmHg 60%
    23:00 -2°C° 0 mm 2 mps 742 mmHg 62%

    Tomorrow, 18 November, Sunday

    Time Temperature Precipitation Wind Pressure Humidity
    00:00 -2°C° 0 mm 2 mps 742 mmHg 63%
    01:00 -2°C° 0 mm 2 mps 742 mmHg 65%
    02:00 -3°C° 0 mm 2 mps 741 mmHg 66%
    03:00 -1°C° 0 mm 1 mps 741 mmHg 68%
    04:00 -1°C° 0 mm 1 mps 740 mmHg 69%
    05:00 -1°C° 0 mm 1 mps 740 mmHg 70%
    06:00 -1°C° 0 mm 1 mps 740 mmHg 71%
    07:00 -1°C° 0 mm 1 mps 739 mmHg 72%
    08:00 0°C° 0 mm 1 mps 739 mmHg 67%
    09:00 +1°C° 0 mm 1 mps 739 mmHg 62%
    10:00 +3°C° 0 mm 1 mps 739 mmHg 57%
    11:00 +2°C° 0 mm 2 mps 738 mmHg 55%
    12:00 +3°C° 0 mm 2 mps 737 mmHg 53%
    13:00 +4°C° 0 mm 2 mps 737 mmHg 51%
    14:00 +3°C° 0 mm 2 mps 736 mmHg 51%
    15:00 +2°C° 0 mm 2 mps 735 mmHg 52%
    16:00 +1°C° 0 mm 2 mps 735 mmHg 52%
    17:00 +1°C° 0 mm 2 mps 735 mmHg 55%
    18:00 +1°C° 0 mm 1 mps 734 mmHg 57%
    19:00 +1°C° 0 mm 1 mps 734 mmHg 60%
    20:00 +1°C° 0 mm 1 mps 734 mmHg 64%
    21:00 0°C° 0 mm 1 mps 733 mmHg 68%
    22:00 0°C° 0 mm 1 mps 733 mmHg 73%
    23:00 0°C° 0 mm 1 mps 733 mmHg 75%

    Day after tomorrow, 19 November, Monday

    Time Temperature Precipitation Wind Pressure Humidity
    00:00 -1°C° 0 mm 1 mps 733 mmHg 78%
    01:00 -3°C° 0 mm 2 mps 732 mmHg 81%
    02:00 -3°C° 0 mm 2 mps 732 mmHg 81%
    03:00 -3°C° 0 mm 2 mps 732 mmHg 81%
    04:00 -3°C° 0 mm 2 mps 732 mmHg 82%
    05:00 -3°C° 0 mm 2 mps 732 mmHg 83%
    06:00 -3°C° 0 mm 2 mps 732 mmHg 84%
    07:00 -3°C° 0 mm 2 mps 732 mmHg 86%
    08:00 -4°C° 0 mm 3 mps 732 mmHg 79%
    09:00 -2°C° 0 mm 3 mps 732 mmHg 73%
    10:00 -1°C° 0 mm 3 mps 732 mmHg 67%
    11:00 0°C° 0 mm 3 mps 732 mmHg 66%
    12:00 -1°C° 0 mm 4 mps 731 mmHg 66%
    13:00 -1°C° 0 mm 4 mps 731 mmHg 65%
    14:00 0°C° 0 mm 3 mps 731 mmHg 69%
    15:00 -1°C° 0 mm 3 mps 731 mmHg 73%
    16:00 -1°C° 0 mm 3 mps 731 mmHg 78%
    17:00 -1°C° 0.1 mm 3 mps 731 mmHg 80%
    18:00 -1°C° 0.1 mm 3 mps 731 mmHg 83%
    19:00 -1°C° 0.1 mm 3 mps 731 mmHg 85%
    20:00 -1°C° 0 mm 3 mps 731 mmHg 85%
    21:00 -2°C° 0 mm 3 mps 731 mmHg 85%
    22:00 -2°C° 0 mm 3 mps 732 mmHg 86%
    23:00 -2°C° 0 mm 3 mps 732 mmHg 87%

    20 November, Tuesday

    Time Temperature Precipitation Wind Pressure Humidity
    00:00 -2°C° 0 mm 3 mps 732 mmHg 88%
    01:00 -2°C° 0 mm 3 mps 732 mmHg 89%
    02:00 -2°C° 0 mm 3 mps 731 mmHg 89%
    03:00 -2°C° 0 mm 3 mps 731 mmHg 90%
    04:00 -2°C° 0 mm 3 mps 731 mmHg 90%
    05:00 -2°C° 0 mm 3 mps 731 mmHg 90%
    06:00 -2°C° 0 mm 3 mps 730 mmHg 90%
    07:00 -2°C° 0 mm 3 mps 730 mmHg 90%
    08:00 -1°C° 0 mm 3 mps 730 mmHg 87%
    09:00 -2°C° 0 mm 4 mps 730 mmHg 84%
    10:00 -1°C° 0 mm 4 mps 730 mmHg 81%
    11:00 -1°C° 0.2 mm 4 mps 729 mmHg 80%
    12:00 0°C° 0.2 mm 4 mps 729 mmHg 80%
    13:00 0°C° 0.2 mm 5 mps 728 mmHg 80%
    14:00 0°C° 0.3 mm 5 mps 728 mmHg 81%
    15:00 -1°C° 0.3 mm 5 mps 727 mmHg 83%
    16:00 -2°C° 0.3 mm 6 mps 727 mmHg 85%
    17:00 -1°C° 0.3 mm 5 mps 727 mmHg 85%
    18:00 -1°C° 0.3 mm 5 mps 726 mmHg 86%
    19:00 -1°C° 0.3 mm 5 mps 726 mmHg 87%
    20:00 -1°C° 0.3 mm 5 mps 726 mmHg 88%
    21:00 -1°C° 0.3 mm 4 mps 726 mmHg 89%
    22:00 -1°C° 0.3 mm 4 mps 725 mmHg 89%
    23:00 -1°C° 0.3 mm 4 mps 725 mmHg 90%

    21 November, Wednesday

    Time Temperature Precipitation Wind Pressure Humidity
    00:00 -1°C° 0.3 mm 4 mps 725 mmHg 91%
    01:00 0°C° 0.3 mm 4 mps 725 mmHg 92%
    02:00 0°C° 0.5 mm 4 mps 724 mmHg 92%
    03:00 0°C° 0.5 mm 4 mps 724 mmHg 92%
    04:00 0°C° 0.5 mm 4 mps 724 mmHg 92%
    05:00 0°C° 0.1 mm 4 mps 724 mmHg 92%
    06:00 +1°C° 0.1 mm 3 mps 724 mmHg 92%
    07:00 +1°C° 0.1 mm 3 mps 724 mmHg 92%
    08:00 +2°C° 0 mm 3 mps 725 mmHg 91%
    09:00 +3°C° 0 mm 3 mps 726 mmHg 89%
    10:00 +4°C° 0 mm 3 mps 726 mmHg 88%
    11:00 +6°C° 0 mm 2 mps 727 mmHg 87%
    12:00 +6°C° 0 mm 2 mps 727 mmHg 85%
    13:00 +7°C° 0 mm 2 mps 728 mmHg 84%
    14:00 +6°C° 0 mm 2 mps 728 mmHg 87%
    15:00 +5°C° 0 mm 2 mps 728 mmHg 91%
    16:00 +5°C° 0 mm 1 mps 729 mmHg 94%
    17:00 +5°C° 0 mm 1 mps 729 mmHg 94%
    18:00 +5°C° 0 mm 1 mps 730 mmHg 94%
    19:00 +5°C° 0 mm 1 mps 730 mmHg 94%
    20:00 +5°C° 0 mm 1 mps 731 mmHg 94%
    21:00 +5°C° 0 mm 1 mps 731 mmHg 94%
    22:00 +4°C° 0 mm 1 mps 732 mmHg 94%
    23:00 +4°C° 0 mm 1 mps 732 mmHg 94%

    22 November, Thursday

    Time Temperature Precipitation Wind Pressure Humidity
    00:00 +4°C° 0 mm 1 mps 733 mmHg 94%
    01:00 +4°C° 0 mm 1 mps 733 mmHg 94%
    02:00 +4°C° 0 mm 1 mps 733 mmHg 95%
    03:00 +4°C° 0 mm 1 mps 733 mmHg 95%
    04:00 +4°C° 0 mm 1 mps 734 mmHg 95%
    05:00 +4°C° 0 mm 1 mps 734 mmHg 95%
    06:00 +4°C° 0 mm 1 mps 734 mmHg 95%
    07:00 +3°C° 0 mm 2 mps 734 mmHg 95%
    08:00 +3°C° 0 mm 2 mps 735 mmHg 92%
    09:00 +4°C° 0 mm 2 mps 735 mmHg 90%
    10:00 +4°C° 0 mm 2 mps 736 mmHg 87%
    11:00 +5°C° 0 mm 2 mps 736 mmHg 85%
    12:00 +5°C° 0 mm 2 mps 736 mmHg 84%
    13:00 +5°C° 0 mm 2 mps 736 mmHg 82%
    14:00 +5°C° 0 mm 2 mps 736 mmHg 85%
    15:00 +4°C° 0 mm 2 mps 736 mmHg 87%
    16:00 +4°C° 0 mm 2 mps 736 mmHg 90%
    17:00 +3°C° 0 mm 2 mps 736 mmHg 91%
    18:00 +3°C° 0 mm 2 mps 736 mmHg 92%
    19:00 +3°C° 0 mm 2 mps 737 mmHg 92%
    20:00 +2°C° 0 mm 2 mps 737 mmHg 93%
    21:00 +2°C° 0 mm 2 mps 737 mmHg 93%
    22:00 +2°C° 0 mm 2 mps 737 mmHg 93%
    23:00 +2°C° 0 mm 2 mps 737 mmHg 92%
    Show more